User: anonymous   Login
Location: Summit Observatory
(39.5293°N, 75.7290°W)
Time: 17:03:44
(UTC-04:00)
Language:

Gurwin Techsat 1B - Orbit

View from above orbital plane
View from above orbital plane
View from above satellite
View from above satellite

Ground track
Ground track

The orbit data is extracted from the following two-line orbital elements,

1 25397U 98043D   17113.86595263 -.00000002 +00000-0 +17888-4 0  9996
2 25397 098.6059 057.3606 0001983 124.7599 235.3767 14.23620121975848
Epoch (UTC): 23 April 2017 20:46:58
Eccentricity: 0.0001983
inclination: 98.6059°
perigee height: 812 km
apogee height: 814 km
right ascension of ascending node: 57.3606°
argument of perigee: 124.7599°
revolutions per day: 14.23620121
mean anomaly at epoch: 235.3767°
orbit number at epoch: 97584

The dashed part of the orbit path shows where the satellite is in the earth's shadow,  

DLR